User: anonymous   Login
Location: Unspecified
(0.0000°N, 0.0000°E)
Time: 20:32:51
(UTC+00:00)
Language:

COROT - Orbit

View from above orbital plane
View from above orbital plane
View from above satellite
View from above satellite

Ground track
Ground track

The orbit data is extracted from the following two-line orbital elements,

1 29678U 06063A   18344.12227837  .00000174  00000-0  35238-4 0  9996
2 29678  90.0349  17.4050 0204167  83.7900 278.6519 14.44230113618133
Epoch (UTC): 10 December 2018 02:56:04
Eccentricity: 0.0204167
inclination: 90.0349°
perigee height: 599 km
apogee height: 890 km
right ascension of ascending node: 17.4050°
argument of perigee: 83.7900°
revolutions per day: 14.44230113
mean anomaly at epoch: 278.6519°
orbit number at epoch: 61813

The dashed part of the orbit path shows where the satellite is in the earth's shadow,  

DLR